Back to catalog

KHORS NO. 5

AliveMilitarySSO
NORAD 67283·PAYLOAD·🇷🇺 Russia
This satellite name has not been confirmed by official sources yet.

Launched Dec 28, 2025 from Vostochny Cosmodrome

Loading…

Next Passes (next 24 hours)

TLE

FreshSource: Space-Track

Epoch: Sep 14, 2026, 10:12 UTC

1 67283U 25313AM  26257.42523502  .00006794  00000-0  27491-3 0  9997
2 67283  97.3865 331.1025 0011058  50.9117 309.3103 15.24971792 39568

Track KHORS NO. 5 in real time with AllMySat

Download on the App Store